Track IRIDIUM 129 now! 10-day predictions IRIDIUM 129 is classified as:
1 42958U 17061D 24262.59044756 .00000358 00000-0 12072-3 0 9990 2 42958 86.3923 291.2800 0002197 85.4750 274.6697 14.34218225363556